When you browse on this site, cookies collect data to enhance your experience and personalize the content and advertising you see.
Visit our Privacy Policy to learn more. By continuing to use the site, you agree to this use of cookies and data.
  • In Latvia
  • List of Countries
  • For 7 days
  • Water Temperature
  • Weather Map
  • Weather Widgets
  • user-avatar
    Login

    Hourly Weather Albany

    Today, 17 November, Sunday

    Time Temperature Precipitation Wind Pressure Humidity
    00:00 +16°C° 0 mm 3 mps 757 mmHg 88%
    01:00 +16°C° 0 mm 3 mps 756 mmHg 87%
    02:00 +16°C° 0 mm 2 mps 756 mmHg 85%
    03:00 +16°C° 0 mm 2 mps 756 mmHg 81%
    04:00 +16°C° 0 mm 2 mps 756 mmHg 78%
    05:00 +17°C° 0 mm 2 mps 756 mmHg 75%
    06:00 +19°C° 0 mm 3 mps 757 mmHg 71%
    07:00 +21°C° 0 mm 4 mps 757 mmHg 68%
    08:00 +25°C° 0 mm 5 mps 757 mmHg 67%
    09:00 +24°C° 0 mm 6 mps 757 mmHg 65%
    10:00 +26°C° 0 mm 6 mps 758 mmHg 63%
    11:00 +27°C° 0 mm 6 mps 758 mmHg 61%
    12:00 +26°C° 0 mm 6 mps 758 mmHg 63%
    13:00 +26°C° 0 mm 6 mps 758 mmHg 65%
    14:00 +24°C° 0 mm 6 mps 757 mmHg 68%
    15:00 +23°C° 0 mm 5 mps 758 mmHg 71%
    16:00 +21°C° 0 mm 5 mps 758 mmHg 74%
    17:00 +20°C° 0 mm 5 mps 759 mmHg 77%
    18:00 +19°C° 0 mm 5 mps 759 mmHg 83%
    19:00 +17°C° 0 mm 4 mps 759 mmHg 89%
    20:00 +15°C° 0 mm 4 mps 760 mmHg 95%
    21:00 +14°C° 0 mm 3 mps 760 mmHg 95%
    22:00 +14°C° 0 mm 3 mps 760 mmHg 95%
    23:00 +15°C° 0 mm 2 mps 761 mmHg 95%

    Tomorrow, 18 November, Monday

    Time Temperature Precipitation Wind Pressure Humidity
    00:00 +15°C° 0 mm 1 mps 760 mmHg 95%
    01:00 +15°C° 0 mm 1 mps 760 mmHg 94%
    02:00 +13°C° 0 mm 0 mps 759 mmHg 93%
    03:00 +14°C° 0 mm 1 mps 760 mmHg 93%
    04:00 +14°C° 0 mm 1 mps 760 mmHg 94%
    05:00 +14°C° 0 mm 1 mps 760 mmHg 94%
    06:00 +15°C° 0 mm 1 mps 760 mmHg 88%
    07:00 +18°C° 0 mm 1 mps 760 mmHg 82%
    08:00 +20°C° 0 mm 1 mps 761 mmHg 76%
    09:00 +20°C° 0 mm 2 mps 760 mmHg 71%
    10:00 +21°C° 0 mm 2 mps 760 mmHg 67%
    11:00 +23°C° 0 mm 2 mps 760 mmHg 62%
    12:00 +22°C° 0 mm 3 mps 760 mmHg 62%
    13:00 +24°C° 0 mm 3 mps 759 mmHg 62%
    14:00 +24°C° 0 mm 3 mps 758 mmHg 61%
    15:00 +22°C° 0 mm 3 mps 758 mmHg 65%
    16:00 +21°C° 0 mm 4 mps 758 mmHg 69%
    17:00 +20°C° 0 mm 4 mps 758 mmHg 73%
    18:00 +19°C° 0 mm 4 mps 758 mmHg 79%
    19:00 +18°C° 0 mm 3 mps 758 mmHg 84%
    20:00 +17°C° 0 mm 3 mps 758 mmHg 89%
    21:00 +17°C° 0 mm 3 mps 757 mmHg 88%
    22:00 +17°C° 0 mm 3 mps 757 mmHg 88%
    23:00 +18°C° 0 mm 3 mps 757 mmHg 87%

    Day after tomorrow, 19 November, Tuesday

    Time Temperature Precipitation Wind Pressure Humidity
    00:00 +17°C° 0.1 mm 3 mps 756 mmHg 87%
    01:00 +17°C° 0.1 mm 3 mps 756 mmHg 87%
    02:00 +17°C° 0.1 mm 2 mps 755 mmHg 86%
    03:00 +17°C° 0 mm 2 mps 755 mmHg 87%
    04:00 +17°C° 0 mm 2 mps 755 mmHg 88%
    05:00 +16°C° 0 mm 1 mps 754 mmHg 89%
    06:00 +18°C° 0 mm 1 mps 754 mmHg 82%
    07:00 +20°C° 0 mm 1 mps 753 mmHg 76%
    08:00 +21°C° 0 mm 1 mps 753 mmHg 69%
    09:00 +21°C° 0 mm 2 mps 753 mmHg 65%
    10:00 +23°C° 0 mm 2 mps 753 mmHg 60%
    11:00 +25°C° 0 mm 3 mps 752 mmHg 55%
    12:00 +22°C° 0 mm 4 mps 752 mmHg 62%
    13:00 +20°C° 0 mm 5 mps 751 mmHg 69%
    14:00 +18°C° 0 mm 7 mps 751 mmHg 76%
    15:00 +18°C° 0 mm 7 mps 751 mmHg 71%
    16:00 +17°C° 0 mm 7 mps 751 mmHg 66%
    17:00 +17°C° 0 mm 7 mps 751 mmHg 62%
    18:00 +16°C° 0 mm 6 mps 751 mmHg 66%
    19:00 +15°C° 0 mm 6 mps 751 mmHg 71%
    20:00 +13°C° 0 mm 6 mps 751 mmHg 76%
    21:00 +13°C° 0 mm 6 mps 752 mmHg 78%
    22:00 +13°C° 0 mm 5 mps 752 mmHg 80%
    23:00 +12°C° 0 mm 5 mps 752 mmHg 82%

    20 November, Wednesday

    Time Temperature Precipitation Wind Pressure Humidity
    00:00 +11°C° 0 mm 6 mps 751 mmHg 82%
    01:00 +11°C° 0 mm 6 mps 751 mmHg 82%
    02:00 +10°C° 0 mm 6 mps 751 mmHg 81%
    03:00 +11°C° 0.5 mm 6 mps 751 mmHg 82%
    04:00 +11°C° 0.5 mm 7 mps 751 mmHg 83%
    05:00 +12°C° 0.5 mm 7 mps 752 mmHg 83%
    06:00 +12°C° 0.3 mm 8 mps 753 mmHg 79%
    07:00 +12°C° 0.3 mm 9 mps 753 mmHg 75%
    08:00 +12°C° 0.3 mm 9 mps 754 mmHg 71%
    09:00 +13°C° 0.1 mm 9 mps 755 mmHg 62%
    10:00 +15°C° 0.1 mm 9 mps 755 mmHg 53%
    11:00 +16°C° 0.1 mm 8 mps 756 mmHg 43%
    12:00 +17°C° 0 mm 8 mps 756 mmHg 44%
    13:00 +17°C° 0 mm 8 mps 756 mmHg 45%
    14:00 +17°C° 0 mm 8 mps 756 mmHg 45%
    15:00 +16°C° 0 mm 7 mps 757 mmHg 47%
    16:00 +15°C° 0 mm 7 mps 757 mmHg 50%
    17:00 +15°C° 0 mm 7 mps 758 mmHg 52%
    18:00 +13°C° 0 mm 6 mps 758 mmHg 58%
    19:00 +12°C° 0 mm 5 mps 759 mmHg 65%
    20:00 +11°C° 0 mm 4 mps 759 mmHg 71%
    21:00 +10°C° 0 mm 3 mps 759 mmHg 72%
    22:00 +10°C° 0 mm 3 mps 759 mmHg 74%
    23:00 +9°C° 0 mm 3 mps 759 mmHg 75%

    21 November, Thursday

    Time Temperature Precipitation Wind Pressure Humidity
    00:00 +9°C° 0 mm 3 mps 759 mmHg 78%
    01:00 +8°C° 0 mm 3 mps 759 mmHg 81%
    02:00 +8°C° 0 mm 3 mps 759 mmHg 83%
    03:00 +8°C° 0 mm 3 mps 759 mmHg 84%
    04:00 +7°C° 0 mm 3 mps 759 mmHg 85%
    05:00 +7°C° 0 mm 3 mps 759 mmHg 85%
    06:00 +10°C° 0 mm 3 mps 759 mmHg 75%
    07:00 +12°C° 0 mm 3 mps 759 mmHg 65%
    08:00 +15°C° 0 mm 4 mps 760 mmHg 55%
    09:00 +18°C° 0 mm 3 mps 759 mmHg 48%
    10:00 +20°C° 0 mm 3 mps 759 mmHg 41%
    11:00 +22°C° 0 mm 3 mps 759 mmHg 34%
    12:00 +21°C° 0 mm 4 mps 758 mmHg 38%
    13:00 +21°C° 0 mm 5 mps 757 mmHg 42%
    14:00 +21°C° 0 mm 6 mps 757 mmHg 47%
    15:00 +20°C° 0 mm 6 mps 757 mmHg 51%
    16:00 +19°C° 0 mm 6 mps 757 mmHg 56%
    17:00 +19°C° 0 mm 6 mps 756 mmHg 61%
    18:00 +16°C° 0 mm 5 mps 757 mmHg 68%
    19:00 +14°C° 0 mm 5 mps 757 mmHg 76%
    20:00 +13°C° 0 mm 4 mps 758 mmHg 83%
    21:00 +12°C° 0 mm 3 mps 758 mmHg 85%
    22:00 +12°C° 0 mm 3 mps 758 mmHg 86%
    23:00 +13°C° 0 mm 2 mps 758 mmHg 87%

    22 November, Friday

    Time Temperature Precipitation Wind Pressure Humidity
    00:00 +13°C° 0 mm 2 mps 758 mmHg 88%
    01:00 +12°C° 0 mm 2 mps 757 mmHg 89%
    02:00 +12°C° 0 mm 2 mps 757 mmHg 89%
    03:00 +13°C° 0 mm 2 mps 757 mmHg 88%
    04:00 +13°C° 0 mm 2 mps 757 mmHg 86%
    05:00 +13°C° 0 mm 2 mps 757 mmHg 84%
    06:00 +15°C° 0 mm 2 mps 758 mmHg 77%
    07:00 +16°C° 0 mm 1 mps 758 mmHg 70%
    08:00 +19°C° 0 mm 1 mps 759 mmHg 63%
    09:00 +19°C° 0 mm 2 mps 759 mmHg 60%
    10:00 +20°C° 0 mm 3 mps 758 mmHg 56%
    11:00 +21°C° 0 mm 3 mps 758 mmHg 52%
    12:00 +21°C° 0 mm 4 mps 758 mmHg 56%
    13:00 +21°C° 0 mm 5 mps 758 mmHg 60%
    14:00 +20°C° 0 mm 6 mps 758 mmHg 63%
    15:00 +19°C° 0 mm 6 mps 758 mmHg 65%
    16:00 +17°C° 0 mm 6 mps 758 mmHg 68%
    17:00 +16°C° 0 mm 5 mps 758 mmHg 70%
    18:00 +15°C° 0 mm 5 mps 759 mmHg 70%
    19:00 +15°C° 0 mm 4 mps 759 mmHg 70%
    20:00 +14°C° 0 mm 4 mps 760 mmHg 70%
    21:00 +14°C° 0 mm 4 mps 760 mmHg 70%
    22:00 +13°C° 0 mm 3 mps 760 mmHg 69%
    23:00 +13°C° 0 mm 3 mps 760 mmHg 69%
    Show more